Location: Prairie Dale
(45.6972°N, 104.5033°W)
Time: 03:51:14
(UTC+00:00)

STARS - Visible Passes

Search period start: 28 June 2022 00:00
Search period end: 08 July 2022 00:00
Orbit: 622 x 636 km, 98.2° (Epoch: 27 June)

Date Brightness Start Highest point End Pass type
(mag) Time Alt. Az. Time Alt. Az. Time Alt. Az.
28 Jun ? 05:24:07 10° NNE 05:28:24 51° E 05:29:42 38° SSE visible
28 Jun ? 07:01:17 10° NNW 07:04:18 18° WNW 07:07:03 11° WSW visible
29 Jun ? 05:44:08 10° NNE 05:48:33 83° ESE 05:50:00 42° S visible
29 Jun ? 07:22:23 10° NW 07:24:09 12° WNW 07:25:55 10° W visible
30 Jun ? 04:29:35 10° ENE 04:31:56 14° E 04:32:58 13° ESE visible
30 Jun ? 06:04:16 10° N 06:08:36 62° WNW 06:10:19 34° SW visible
01 Jul ? 04:48:47 10° NE 04:52:13 22° E 04:53:16 20° ESE visible
01 Jul ? 06:24:32 10° N 06:28:38 39° WNW 06:30:37 24° WSW visible
02 Jul ? 05:08:26 10° NNE 05:12:27 34° E 05:13:33 30° SE visible
02 Jul ? 06:44:58 10° N 06:48:34 25° WNW 06:50:54 16° WSW visible
03 Jul ? 05:28:18 10° NNE 05:32:38 56° E 05:33:51 40° SSE visible
03 Jul ? 07:05:38 10° NNW 07:08:28 17° WNW 07:11:12 10° W visible
04 Jul ? 05:48:20 10° NNE 05:52:44 90° E 05:54:08 43° SSW visible
04 Jul ? 07:26:56 10° NW 07:28:18 11° WNW 07:29:40 10° WNW visible
05 Jul ? 04:33:34 10° NE 04:36:09 15° E 04:37:04 14° ESE visible
05 Jul ? 06:08:29 10° N 06:12:47 56° WNW 06:14:26 34° SW visible
06 Jul ? 04:52:52 10° NE 04:56:26 24° E 04:57:21 22° ESE visible
06 Jul ? 06:28:47 10° N 06:32:47 36° WNW 06:34:43 24° WSW visible
07 Jul ? 05:12:34 10° NNE 05:16:39 37° E 05:17:38 33° SE visible
07 Jul ? 06:49:14 10° NNW 06:52:42 24° WNW 06:54:59 16° WSW visible
